PTNIC SBFI-SBDN

Flight info

Callsign PTNIC
Flight time N/A
Altitude 15000
Route IVSOB DCT KUDUX Z31 LON W48 KOTEG
Aircraft AEST/L-SDFGRY/S

Departure

Time 2026-05-03 21:57
Airport Cataratas International Airport (SBFI)

Arrival

Time N/A
Airport Presidente Prudente Airport (SBDN)
Time Latitude Longitude Altitude Speed Heading
2026-05-03 21:17 -25.59876 -54.48587 793 ft 0 kts 310°
2026-05-03 21:46 -25.59855 -54.48594 793 ft 10 kts 26°
2026-05-03 21:47 -25.59777 -54.48657 793 ft 21 kts 309°
2026-05-03 21:47 -25.59722 -54.48728 793 ft 11 kts 312°
2026-05-03 21:47 -25.59643 -54.48826 793 ft 22 kts 311°
2026-05-03 21:47 -25.59563 -54.48929 794 ft 14 kts 328°
2026-05-03 21:48 -25.59529 -54.48931 794 ft 0 kts 28°
2026-05-03 21:52 -25.59513 -54.48918 795 ft 8 kts 39°
2026-05-03 21:52 -25.59443 -54.48916 796 ft 18 kts 313°
2026-05-03 21:53 -25.59336 -54.49052 794 ft 28 kts 311°
2026-05-03 21:53 -25.59209 -54.49211 793 ft 27 kts 312°
2026-05-03 21:53 -25.59085 -54.49366 791 ft 26 kts 310°
2026-05-03 21:53 -25.58975 -54.49511 791 ft 23 kts 310°
2026-05-03 21:54 -25.58869 -54.49626 793 ft 19 kts 326°
2026-05-03 21:54 -25.58851 -54.49667 795 ft 6 kts 140°
2026-05-03 21:54 -25.58859 -54.49657 794 ft 0 kts 131°
2026-05-03 21:56 -25.58890 -54.49618 793 ft 37 kts 131°
2026-05-03 21:57 -25.59233 -54.49175 794 ft 103 kts 130°
2026-05-03 21:57 -25.59741 -54.48517 910 ft 115 kts 130°
2026-05-03 21:57 -25.60293 -54.47889 1203 ft 114 kts 142°
2026-05-03 21:57 -25.60909 -54.47442 1712 ft 107 kts 154°
2026-05-03 21:58 -25.61527 -54.47017 2244 ft 91 kts 129°
2026-05-03 21:58 -25.62076 -54.46573 2448 ft 118 kts 139°
2026-05-03 21:58 -25.62611 -54.45722 2354 ft 156 kts 102°
2026-05-03 21:58 -25.62780 -54.44511 2603 ft 159 kts 104°
2026-05-03 21:59 -25.63347 -54.43460 2829 ft 165 kts 137°
2026-05-03 21:59 -25.64338 -54.42786 3094 ft 169 kts 141°
2026-05-03 21:59 -25.65074 -54.41795 3374 ft 166 kts 115°
2026-05-03 21:59 -25.65735 -54.40800 3601 ft 162 kts 132°
2026-05-03 22:00 -25.66322 -54.39763 3850 ft 159 kts 102°
2026-05-03 22:00 -25.66469 -54.38543 3975 ft 160 kts 89°
2026-05-03 22:00 -25.66509 -54.37305 4090 ft 162 kts 88°
2026-05-03 22:00 -25.66542 -54.36051 4225 ft 164 kts 89°
2026-05-03 22:01 -25.66577 -54.34786 4359 ft 165 kts 88°
2026-05-03 22:01 -25.66829 -54.33548 4490 ft 166 kts 100°
2026-05-03 22:01 -25.66928 -54.32288 4639 ft 164 kts 88°
2026-05-03 22:01 -25.66963 -54.31020 4782 ft 164 kts 88°
2026-05-03 22:02 -25.66995 -54.29757 4911 ft 164 kts 88°
2026-05-03 22:02 -25.67026 -54.28488 5038 ft 165 kts 88°
2026-05-03 22:02 -25.67053 -54.27213 5164 ft 165 kts 88°
2026-05-03 22:02 -25.67078 -54.25938 5287 ft 166 kts 88°
2026-05-03 22:03 -25.67100 -54.24659 5410 ft 166 kts 88°
2026-05-03 22:03 -25.67135 -54.23373 5522 ft 168 kts 88°
2026-05-03 22:03 -25.67175 -54.22077 5641 ft 168 kts 88°
2026-05-03 22:03 -25.67215 -54.20780 5760 ft 168 kts 88°
2026-05-03 22:04 -25.67253 -54.19480 5879 ft 169 kts 88°
2026-05-03 22:04 -25.67290 -54.18178 5993 ft 169 kts 88°
2026-05-03 22:04 -25.67324 -54.16879 6111 ft 168 kts 88°
2026-05-03 22:04 -25.67345 -54.15583 6231 ft 168 kts 81°
2026-05-03 22:05 -25.66895 -54.14439 6376 ft 161 kts 42°
2026-05-03 22:05 -25.65953 -54.13870 6504 ft 153 kts
2026-05-03 22:05 -25.64906 -54.13835 6584 ft 150 kts 356°
2026-05-03 22:05 -25.63863 -54.13860 6664 ft 149 kts 356°
2026-05-03 22:06 -25.62833 -54.13891 6761 ft 147 kts 356°
2026-05-03 22:06 -25.61811 -54.13922 6854 ft 146 kts 355°
2026-05-03 22:06 -25.60798 -54.13954 6939 ft 145 kts 355°
2026-05-03 22:06 -25.59793 -54.13910 7005 ft 145 kts
2026-05-03 22:07 -25.58805 -54.13649 7065 ft 146 kts 12°
2026-05-03 22:07 -25.57843 -54.13260 7127 ft 148 kts 20°
2026-05-03 22:07 -25.56909 -54.12747 7195 ft 150 kts 22°
2026-05-03 22:07 -25.55986 -54.12203 7264 ft 150 kts 23°
2026-05-03 22:08 -25.55066 -54.11651 7335 ft 150 kts 24°
2026-05-03 22:08 -25.54150 -54.11094 7403 ft 151 kts 24°
2026-05-03 22:08 -25.53236 -54.10532 7482 ft 150 kts 24°
2026-05-03 22:08 -25.52322 -54.09965 7549 ft 151 kts 24°
2026-05-03 22:09 -25.51403 -54.09399 7610 ft 151 kts 24°
2026-05-03 22:09 -25.50489 -54.08839 7673 ft 150 kts 24°
2026-05-03 22:09 -25.49576 -54.08274 7746 ft 150 kts 24°
2026-05-03 22:10 -25.47781 -54.07157 7975 ft 145 kts 24°
2026-05-03 22:10 -25.46909 -54.06607 8087 ft 144 kts 24°
2026-05-03 22:10 -25.46042 -54.06058 8193 ft 143 kts 24°
2026-05-03 22:10 -25.45181 -54.05515 8283 ft 143 kts 24°
2026-05-03 22:11 -25.44320 -54.04964 8358 ft 144 kts 24°
2026-05-03 22:11 -25.43443 -54.04400 8421 ft 147 kts 24°
2026-05-03 22:11 -25.42557 -54.03827 8486 ft 148 kts 24°
2026-05-03 22:11 -25.41637 -54.03322 8592 ft 146 kts
2026-05-03 22:12 -25.40648 -54.03182 8669 ft 143 kts
2026-05-03 22:12 -25.39659 -54.03074 8730 ft 143 kts 360°
2026-05-03 22:12 -25.38667 -54.02950 8798 ft 144 kts 360°
2026-05-03 22:12 -25.37674 -54.02820 8862 ft 144 kts 360°
2026-05-03 22:13 -25.36682 -54.02676 8914 ft 144 kts
2026-05-03 22:13 -25.35745 -54.02262 8930 ft 149 kts 27°
2026-05-03 22:13 -25.35090 -54.01351 8933 ft 158 kts 54°
2026-05-03 22:13 -25.34388 -54.00435 9046 ft 155 kts 30°
2026-05-03 22:14 -25.33542 -53.99716 9107 ft 154 kts 34°
2026-05-03 22:14 -25.32751 -53.98909 9165 ft 155 kts 37°
2026-05-03 22:14 -25.31966 -53.98092 9231 ft 155 kts 36°
2026-05-03 22:14 -25.31179 -53.97277 9293 ft 154 kts 36°
2026-05-03 22:15 -25.30391 -53.96465 9356 ft 156 kts 36°
2026-05-03 22:15 -25.29600 -53.95651 9409 ft 154 kts 36°
2026-05-03 22:15 -25.28816 -53.94841 9471 ft 155 kts 38°
2026-05-03 22:15 -25.28031 -53.94014 9540 ft 156 kts 36°
2026-05-03 22:16 -25.27237 -53.93197 9593 ft 156 kts 36°
2026-05-03 22:16 -25.26444 -53.92378 9662 ft 156 kts 36°
2026-05-03 22:16 -25.25653 -53.91565 9733 ft 155 kts 36°
2026-05-03 22:16 -25.24861 -53.90748 9800 ft 154 kts 36°
2026-05-03 22:17 -25.24096 -53.89951 9838 ft 154 kts 36°
2026-05-03 22:17 -25.23314 -53.89135 9896 ft 155 kts 36°
2026-05-03 22:17 -25.22521 -53.88323 9949 ft 156 kts 36°
2026-05-03 22:17 -25.21733 -53.87502 10001 ft 156 kts 36°
2026-05-03 22:18 -25.20953 -53.86681 10053 ft 155 kts 37°
2026-05-03 22:18 -25.20185 -53.85840 10092 ft 156 kts 38°
2026-05-03 22:18 -25.19438 -53.84965 10115 ft 157 kts 41°
2026-05-03 22:18 -25.18726 -53.84031 10104 ft 160 kts 45°
2026-05-03 22:19 -25.18086 -53.83022 10103 ft 162 kts 52°
2026-05-03 22:19 -25.17573 -53.81893 10108 ft 166 kts 64°
2026-05-03 22:19 -25.17266 -53.80647 10125 ft 171 kts 73°
2026-05-03 22:19 -25.17059 -53.79343 10121 ft 175 kts 78°
2026-05-03 22:20 -25.16935 -53.77999 10123 ft 178 kts 83°
2026-05-03 22:20 -25.16891 -53.76631 10119 ft 179 kts 85°
2026-05-03 22:20 -25.16859 -53.75249 10119 ft 181 kts 85°
2026-05-03 22:20 -25.16820 -53.73851 10126 ft 182 kts 86°
2026-05-03 22:21 -25.16778 -53.72431 10128 ft 183 kts 85°
2026-05-03 22:21 -25.16740 -53.71045 10133 ft 184 kts 85°
2026-05-03 22:21 -25.16701 -53.69609 10131 ft 186 kts 85°
2026-05-03 22:21 -25.16663 -53.68183 10131 ft 186 kts 85°
2026-05-03 22:22 -25.16622 -53.66756 10137 ft 186 kts 84°
2026-05-03 22:22 -25.16573 -53.65348 10137 ft 186 kts 85°
2026-05-03 22:22 -25.16533 -53.63914 10138 ft 187 kts 85°
2026-05-03 22:22 -25.16492 -53.62473 10138 ft 188 kts 85°
2026-05-03 22:23 -25.16450 -53.61033 10137 ft 188 kts 85°
2026-05-03 22:23 -25.16284 -53.59607 10151 ft 187 kts 70°
2026-05-03 22:23 -25.15728 -53.58333 10145 ft 183 kts 50°
2026-05-03 22:23 -25.14854 -53.57336 10143 ft 180 kts 33°
2026-05-03 22:24 -25.13894 -53.56467 10140 ft 178 kts 35°
2026-05-03 22:24 -25.12979 -53.55547 10148 ft 178 kts 38°
2026-05-03 22:24 -25.12125 -53.54564 10152 ft 177 kts 42°
2026-05-03 22:24 -25.11326 -53.53528 10152 ft 178 kts 45°
2026-05-03 22:25 -25.10562 -53.52451 10162 ft 179 kts 47°
2026-05-03 22:25 -25.09813 -53.51341 10158 ft 180 kts 49°
2026-05-03 22:25 -25.09101 -53.50239 10155 ft 176 kts 48°
2026-05-03 22:25 -25.08380 -53.49145 10163 ft 177 kts 49°
2026-05-03 22:26 -25.07646 -53.48038 10167 ft 179 kts 48°
2026-05-03 22:26 -25.06904 -53.46943 10162 ft 178 kts 48°
2026-05-03 22:26 -25.06159 -53.45845 10158 ft 180 kts 47°
2026-05-03 22:26 -25.05397 -53.44737 10161 ft 182 kts 47°
2026-05-03 22:27 -25.04625 -53.43630 10116 ft 183 kts 47°
2026-05-03 22:27 -25.03843 -53.42522 10117 ft 183 kts 47°
2026-05-03 22:27 -25.03053 -53.41413 10120 ft 184 kts 46°
2026-05-03 22:27 -25.02259 -53.40308 10111 ft 184 kts 46°
2026-05-03 22:28 -25.01461 -53.39203 10117 ft 184 kts 46°
2026-05-03 22:28 -25.00662 -53.38100 10121 ft 185 kts 46°
2026-05-03 22:28 -24.99849 -53.36979 10126 ft 190 kts 46°
2026-05-03 22:28 -24.99008 -53.35822 10126 ft 196 kts 46°
2026-05-03 22:29 -24.98143 -53.34634 10122 ft 200 kts 46°
2026-05-03 22:29 -24.97267 -53.33423 10115 ft 204 kts 47°
2026-05-03 22:29 -24.96379 -53.32191 10122 ft 207 kts 47°
2026-05-03 22:29 -24.95482 -53.30942 10118 ft 209 kts 47°
2026-05-03 22:30 -24.94580 -53.29684 10120 ft 210 kts 47°
2026-05-03 22:30 -24.93675 -53.28418 10114 ft 211 kts 47°
2026-05-03 22:30 -24.92763 -53.27150 10123 ft 212 kts 47°
2026-05-03 22:30 -24.91844 -53.25880 10119 ft 212 kts 47°
2026-05-03 22:31 -24.90922 -53.24600 10117 ft 213 kts 47°
2026-05-03 22:31 -24.90001 -53.23318 10122 ft 214 kts 47°
2026-05-03 22:31 -24.89082 -53.22039 10122 ft 213 kts 47°
2026-05-03 22:31 -24.88156 -53.20754 10111 ft 214 kts 47°
2026-05-03 22:32 -24.87230 -53.19469 10118 ft 214 kts 47°
2026-05-03 22:32 -24.86620 -53.18615 10117 ft 214 kts 48°
2026-05-03 22:32 -24.85704 -53.17328 10122 ft 213 kts 47°
2026-05-03 22:32 -24.84772 -53.16030 10119 ft 214 kts 47°
2026-05-03 22:33 -24.83855 -53.14765 10108 ft 214 kts 48°
2026-05-03 22:33 -24.82931 -53.13481 10117 ft 214 kts 47°
2026-05-03 22:33 -24.82005 -53.12194 10115 ft 215 kts 47°
2026-05-03 22:33 -24.81079 -53.10906 10101 ft 215 kts 47°
2026-05-03 22:34 -24.80149 -53.09619 10119 ft 214 kts 47°
2026-05-03 22:34 -24.79230 -53.08327 10108 ft 215 kts 51°
2026-05-03 22:34 -24.78427 -53.06932 10117 ft 215 kts 53°
2026-05-03 22:34 -24.77584 -53.05571 10121 ft 215 kts 50°
2026-05-03 22:35 -24.76676 -53.04267 10094 ft 215 kts 47°
2026-05-03 22:35 -24.75721 -53.02997 10089 ft 215 kts 45°
2026-05-03 22:35 -24.74798 -53.01814 10102 ft 213 kts 45°
2026-05-03 22:35 -24.73835 -53.00579 10105 ft 213 kts 45°
2026-05-03 22:36 -24.72855 -52.99333 10116 ft 213 kts 45°
2026-05-03 22:36 -24.71909 -52.98114 10111 ft 212 kts 45°
2026-05-03 22:36 -24.70955 -52.96873 10119 ft 213 kts 46°
2026-05-03 22:36 -24.70006 -52.95619 10121 ft 214 kts 47°
2026-05-03 22:37 -24.69062 -52.94350 10108 ft 215 kts 47°
2026-05-03 22:37 -24.68123 -52.93072 10100 ft 215 kts 48°
2026-05-03 22:37 -24.67203 -52.91789 10110 ft 214 kts 48°
2026-05-03 22:37 -24.66285 -52.90502 10104 ft 214 kts 48°
2026-05-03 22:38 -24.65367 -52.89213 10108 ft 214 kts 49°
2026-05-03 22:38 -24.64457 -52.87920 10108 ft 214 kts 49°
2026-05-03 22:38 -24.63555 -52.86617 10107 ft 215 kts 50°
2026-05-03 22:38 -24.62659 -52.85307 10114 ft 214 kts 50°
2026-05-03 22:39 -24.61773 -52.83994 10108 ft 214 kts 50°
2026-05-03 22:39 -24.60894 -52.82672 10112 ft 214 kts 50°
2026-05-03 22:39 -24.60021 -52.81346 10110 ft 214 kts 51°
2026-05-03 22:39 -24.59076 -52.80094 10117 ft 213 kts 36°
2026-05-03 22:40 -24.57878 -52.79152 10110 ft 211 kts 29°
2026-05-03 22:40 -24.56646 -52.78277 10108 ft 210 kts 28°
2026-05-03 22:40 -24.55413 -52.77415 10109 ft 210 kts 28°
2026-05-03 22:40 -24.54181 -52.76556 10112 ft 210 kts 28°
2026-05-03 22:41 -24.52945 -52.75707 10102 ft 209 kts 28°
2026-05-03 22:41 -24.51739 -52.74817 10099 ft 209 kts 36°
2026-05-03 22:41 -24.50734 -52.73666 10114 ft 210 kts 47°
2026-05-03 22:41 -24.49748 -52.72484 10121 ft 210 kts 41°
2026-05-03 22:42 -24.48642 -52.71428 10114 ft 211 kts 34°
2026-05-03 22:42 -24.47438 -52.70480 10109 ft 210 kts 30°
2026-05-03 22:42 -24.46213 -52.69610 10111 ft 209 kts 29°
2026-05-03 22:42 -24.44982 -52.68763 10112 ft 209 kts 28°
2026-05-03 22:43 -24.43751 -52.67917 10111 ft 209 kts 29°
2026-05-03 22:43 -24.42528 -52.67059 10110 ft 209 kts 30°
2026-05-03 22:43 -24.41315 -52.66182 10113 ft 208 kts 30°
2026-05-03 22:43 -24.40116 -52.65284 10113 ft 209 kts 31°
2026-05-03 22:44 -24.38926 -52.64373 10112 ft 209 kts 32°
2026-05-03 22:44 -24.37744 -52.63443 10110 ft 209 kts 32°
2026-05-03 22:44 -24.36569 -52.62500 10110 ft 209 kts 33°
2026-05-03 22:44 -24.35402 -52.61548 10113 ft 209 kts 33°
2026-05-03 22:45 -24.34240 -52.60593 10114 ft 209 kts 33°
2026-05-03 22:45 -24.33079 -52.59639 10113 ft 209 kts 33°
2026-05-03 22:45 -24.31913 -52.58681 10112 ft 210 kts 33°
2026-05-03 22:45 -24.30748 -52.57724 10111 ft 210 kts 33°
2026-05-03 22:46 -24.29576 -52.56769 10113 ft 210 kts 33°
2026-05-03 22:46 -24.28402 -52.55817 10107 ft 210 kts 33°
2026-05-03 22:46 -24.27229 -52.54867 10112 ft 209 kts 33°
2026-05-03 22:46 -24.26058 -52.53919 10112 ft 210 kts 33°
2026-05-03 22:47 -24.24885 -52.52970 10111 ft 209 kts 33°
2026-05-03 22:47 -24.23714 -52.52024 10113 ft 208 kts 33°
2026-05-03 22:47 -24.22549 -52.51080 10112 ft 208 kts 33°
2026-05-03 22:47 -24.21384 -52.50136 10112 ft 208 kts 33°